"Pseudo-MPEC" for P11DBYf

Created 2023 Mar 22 15:22:11 UT using Find_Orb

Click here for an explanation of pseudo-MPECs

 
 Astrometry: 
     P11DBYf* C2023 03 18\dFa/TAstrometryeo\4yk?1l+'QW]7CwK7Zredacted;(ci(yS(F51
     P11DBYf  C2023 03 18`=7L2s`1Yw0Z(719N]KNN+click0kNherelk(OQyfW19rvXQsheUF51
     P11DBYf  C2023 03 18ZQI.S`4[4?fork%H8p*g)S3:l+jJexplanation7ms'SBia(#BpwF51

Station data:
(F51) Pan-STARRS 1, Haleakala  (N20.707234 W156.255910)  US/Hawaii.
   Observers J. Bulger, T. Lowe, A. Schultz, M. Willman. Measurers K.
   Chambers, S. Chastel, T. de Boer, L. Denneau, J. Fairlamb, H. Flewelling,
   M. Huber, C.-C. Lin, E. Magnier, Y. Ramanjooloo, R. Wainscoat, R. Weryk.
   1.8-m Ritchey-Chrétien + CCD.

Orbital elements:  P11DBYf
   Perihelion 2024 Jan 4.29251 +/- 320 TT =  7:01:13 (JD 2460313.79251)
Epoch 2023 Mar 18.0 TT = JDT 2460021.5   Earth MOID: 0.6906      AutoNEOCP
M 244.37263889 +/- 80               (J2000 ecliptic)
n   0.39558782 +/- 0.236            Peri.  175.29660 +/- 70
a   1.83783887 +/- 0.732            Node   122.47445 +/- 42
e   0.0716350 +/- 0.259             Incl.   20.82870 +/- 32
P   2.49/910.02d           H 19.92  G  0.15   U 11.8  SR
q 1.70618515 +/- 0.919    Q 1.96949260 +/- 33.9
From 3 observations 2023 Mar. 18 (48.8 min); mean residual 0".04
Residuals in arcseconds: 
230318 F51  .05-  .00     230318 F51  .08+  .00     230318 F51  .03-  .00     

Ephemerides (geocentric):
Date (UTC) HH   RA             Dec           delta  r     elong  mag " sig PA
---- --------  ------------   ------------  ------ ------ -----  --- --------
2023 03 22 15  12 13 11.592   +35 16 05.19  0.9992 1.8985 144.1 22.3 2107 170
2023 03 22 16  12 13 08.890   +35 16 37.28  0.9992 1.8985 144.1 22.3 2139 170
2023 03 22 17  12 13 06.187   +35 17 09.31  0.9993 1.8984 144.1 22.3 2173 170
2023 03 22 18  12 13 03.483   +35 17 41.27  0.9994 1.8984 144.1 22.3 2206 170
2023 03 22 19  12 13 00.779   +35 18 13.18  0.9995 1.8984 144.0 22.3 2240 170
2023 03 22 20  12 12 58.075   +35 18 45.01  0.9996 1.8983 144.0 22.3 2274 170
2023 03 22 21  12 12 55.371   +35 19 16.79  0.9997 1.8983 144.0 22.3 2309 170
2023 03 22 22  12 12 52.666   +35 19 48.50  0.9997 1.8983 144.0 22.3 2345 170
2023 03 22 23  12 12 49.961   +35 20 20.15  0.9998 1.8983 143.9 22.3 2380 170
2023 03 23 00  12 12 47.255   +35 20 51.74  0.9999 1.8982 143.9 22.3 2417 170
2023 03 23 01  12 12 44.550   +35 21 23.26  1.0000 1.8982 143.9 22.3 2453 169
2023 03 23 02  12 12 41.844   +35 21 54.72  1.0001 1.8982 143.9 22.3 2491 169
2023 03 23 03  12 12 39.137   +35 22 26.11  1.0002 1.8981 143.8 22.3 2529 169
2023 03 23 04  12 12 36.431   +35 22 57.44  1.0003 1.8981 143.8 22.3 2567 169
2023 03 23 05  12 12 33.724   +35 23 28.71  1.0004 1.8981 143.8 22.3 2606 169
2023 03 23 06  12 12 31.016   +35 23 59.92  1.0004 1.8980 143.8 22.3 2646 169
2023 03 23 07  12 12 28.309   +35 24 31.06  1.0005 1.8980 143.8 22.3 2686 169
2023 03 23 08  12 12 25.601   +35 25 02.14  1.0006 1.8980 143.7 22.3 2727 169
2023 03 23 09  12 12 22.893   +35 25 33.15  1.0007 1.8979 143.7 22.3 2768 169
2023 03 23 10  12 12 20.185   +35 26 04.10  1.0008 1.8979 143.7 22.3 2810 169
2023 03 23 11  12 12 17.477   +35 26 34.99  1.0009 1.8979 143.7 22.3 2853 168
2023 03 23 12  12 12 14.768   +35 27 05.81  1.0010 1.8978 143.6 22.3 2896 168
2023 03 23 13  12 12 12.060   +35 27 36.57  1.0011 1.8978 143.6 22.3 2940 168
2023 03 23 14  12 12 09.351   +35 28 07.27  1.0012 1.8978 143.6 22.3 2985 168
2023 03 23 15  12 12 06.642   +35 28 37.90  1.0013 1.8977 143.6 22.3 3031 168
2023 03 23 16  12 12 03.932   +35 29 08.46  1.0013 1.8977 143.5 22.3 3077 168
2023 03 23 17  12 12 01.223   +35 29 38.97  1.0014 1.8977 143.5 22.3 3124 168
2023 03 23 18  12 11 58.513   +35 30 09.41  1.0015 1.8976 143.5 22.3 3172 168
2023 03 23 19  12 11 55.804   +35 30 39.78  1.0016 1.8976 143.5 22.3 3220 168
2023 03 23 20  12 11 53.094   +35 31 10.09  1.0017 1.8976 143.4 22.3 3270 168
2023 03 23 21  12 11 50.384   +35 31 40.34  1.0018 1.8975 143.4 22.3 3320 167
2023 03 23 22  12 11 47.674   +35 32 10.53  1.0019 1.8975 143.4 22.3 3371 167
2023 03 23 23  12 11 44.964   +35 32 40.65  1.0020 1.8975 143.4 22.3 3423 167
2023 03 24 00  12 11 42.253   +35 33 10.70  1.0021 1.8974 143.3 22.3 3477 167
2023 03 24 01  12 11 39.543   +35 33 40.69  1.0022 1.8974 143.3 22.3 3531 167
2023 03 24 02  12 11 36.833   +35 34 10.62  1.0023 1.8974 143.3 22.3 3586 167
2023 03 24 03  12 11 34.122   +35 34 40.48  1.0024 1.8973 143.3 22.3 3642 167
2023 03 24 04  12 11 31.412   +35 35 10.28  1.0025 1.8973 143.2 22.3 3699 167
2023 03 24 05  12 11 28.701   +35 35 40.01  1.0026 1.8973 143.2 22.3 3757 166
2023 03 24 06  12 11 25.991   +35 36 09.68  1.0027 1.8972 143.2 22.3 3817 166
2023 03 24 07  12 11 23.280   +35 36 39.29  1.0028 1.8972 143.2 22.3 3877 166
2023 03 24 08  12 11 20.569   +35 37 08.83  1.0029 1.8972 143.1 22.3 3939 166
2023 03 24 09  12 11 17.859   +35 37 38.31  1.0030 1.8971 143.1 22.3 4002 166
2023 03 24 10  12 11 15.148   +35 38 07.72  1.0030 1.8971 143.1 22.3 4066 166
2023 03 24 11  12 11 12.437   +35 38 37.06  1.0031 1.8971 143.1 22.3 4132 166
2023 03 24 12  12 11 09.727   +35 39 06.35  1.0032 1.8970 143.0 22.3 4199 166
2023 03 24 13  12 11 07.016   +35 39 35.57  1.0033 1.8970 143.0 22.3 4268 165
2023 03 24 14  12 11 04.306   +35 40 04.72  1.0034 1.8970 143.0 22.3 4338 165